Time,TemperatureF,DewpointF,PressureIn,WindDirection,WindDirectionDegrees,WindSpeedMPH,WindSpeedGustMPH,Humidity,HourlyPrecipIn,Conditions,Clouds,dailyrainin,SoftwareType,DateUTC
2013-03-02 00:04:00,22.0,21.0,29.57,West,270,3.0,5.0,99,0.00,,,0.00,TxWx,2013-03-02 05:04:00,
2013-03-02 00:09:00,22.0,21.0,29.58,WNW,292,8.0,8.0,99,0.00,,,0.00,TxWx,2013-03-02 05:09:00,
2013-03-02 00:14:00,22.0,21.0,29.58,WSW,247,3.0,4.0,99,0.00,,,0.00,TxWx,2013-03-02 05:14:00,
2013-03-02 00:19:00,22.0,21.0,29.57,SW,225,5.0,8.0,99,0.00,,,0.00,TxWx,2013-03-02 05:19:00,
2013-03-02 00:24:00,22.0,21.0,29.58,West,270,7.0,8.0,99,0.00,,,0.00,TxWx,2013-03-02 05:24:00,
2013-03-02 00:29:00,22.0,21.0,29.58,NW,315,6.0,6.0,99,0.00,,,0.00,TxWx,2013-03-02 05:29:00,
2013-03-02 00:34:00,22.0,21.0,29.57,West,270,6.0,6.0,99,0.00,,,0.00,TxWx,2013-03-02 05:34:00,
2013-03-02 00:39:00,22.0,21.0,29.57,WNW,292,2.0,3.0,99,0.00,,,0.00,TxWx,2013-03-02 05:39:00,
2013-03-02 00:44:00,22.0,21.0,29.57,West,270,4.0,4.0,99,0.00,,,0.00,TxWx,2013-03-02 05:44:00,
2013-03-02 00:49:00,22.0,21.0,29.57,WNW,292,5.0,6.0,99,0.00,,,0.00,TxWx,2013-03-02 05:49:00,
2013-03-02 00:55:00,22.0,21.0,29.57,NW,315,5.0,7.0,99,0.00,,,0.00,TxWx,2013-03-02 05:55:00,
2013-03-02 01:00:00,22.0,21.0,29.57,WNW,292,7.0,8.0,99,0.00,,,0.00,TxWx,2013-03-02 06:00:00,
2013-03-02 01:05:00,22.0,21.0,29.57,NW,315,5.0,6.0,99,0.00,,,0.00,TxWx,2013-03-02 06:05:00,
2013-03-02 01:10:00,22.0,21.0,29.57,NNW,337,5.0,6.0,99,0.00,,,0.00,TxWx,2013-03-02 06:10:00,
2013-03-02 01:15:00,22.0,21.0,29.58,NW,315,5.0,8.0,99,0.00,,,0.00,TxWx,2013-03-02 06:15:00,
2013-03-02 01:20:00,22.0,21.0,29.58,NW,315,5.0,6.0,99,0.00,,,0.00,TxWx,2013-03-02 06:20:00,
2013-03-02 01:25:00,21.0,20.0,29.58,West,270,7.0,7.0,99,0.00,,,0.00,TxWx,2013-03-02 06:25:00,
2013-03-02 01:30:00,21.0,20.0,29.58,NNW,337,8.0,10.0,99,0.00,,,0.00,TxWx,2013-03-02 06:30:00,
2013-03-02 01:35:00,21.0,20.0,29.58,West,270,4.0,5.0,98,0.00,,,0.00,TxWx,2013-03-02 06:35:00,
2013-03-02 01:40:00,21.0,20.0,29.58,West,270,5.0,6.0,98,0.00,,,0.00,TxWx,2013-03-02 06:40:00,
2013-03-02 01:46:00,21.0,20.0,29.58,WNW,292,6.0,6.0,98,0.00,,,0.00,TxWx,2013-03-02 06:46:00,
2013-03-02 01:51:00,21.0,20.0,29.58,WSW,247,3.0,3.0,98,0.00,,,0.00,TxWx,2013-03-02 06:51:00,
2013-03-02 01:56:00,21.0,20.0,29.58,WNW,292,4.0,7.0,98,0.00,,,0.00,TxWx,2013-03-02 06:56:00,
2013-03-02 02:01:00,21.0,20.0,29.58,WNW,292,4.0,8.0,98,0.00,,,0.00,TxWx,2013-03-02 07:01:00,
2013-03-02 02:06:00,21.0,20.0,29.58,WNW,292,10.0,10.0,98,0.00,,,0.00,TxWx,2013-03-02 07:06:00,
2013-03-02 02:11:00,21.0,20.0,29.57,WNW,292,5.0,6.0,98,0.00,,,0.00,TxWx,2013-03-02 07:11:00,
2013-03-02 02:16:00,21.0,20.0,29.57,WNW,292,5.0,9.0,98,0.00,,,0.00,TxWx,2013-03-02 07:16:00,
2013-03-02 02:21:00,21.0,20.0,29.57,WNW,292,7.0,9.0,98,0.00,,,0.00,TxWx,2013-03-02 07:21:00,
2013-03-02 02:26:00,21.0,20.0,29.57,NNW,337,6.0,9.0,98,0.00,,,0.00,TxWx,2013-03-02 07:26:00,
2013-03-02 02:32:00,21.0,20.0,29.57,NNW,337,4.0,5.0,98,0.00,,,0.00,TxWx,2013-03-02 07:32:00,
2013-03-02 02:37:00,21.0,20.0,29.57,West,270,5.0,5.0,98,0.00,,,0.00,TxWx,2013-03-02 07:37:00,
2013-03-02 02:42:00,21.0,20.0,29.57,WNW,292,6.0,8.0,98,0.00,,,0.00,TxWx,2013-03-02 07:42:00,
2013-03-02 02:47:00,21.0,20.0,29.57,WNW,292,5.0,6.0,98,0.00,,,0.00,TxWx,2013-03-02 07:47:00,
2013-03-02 02:52:00,21.0,20.0,29.57,NW,315,5.0,5.0,98,0.00,,,0.00,TxWx,2013-03-02 07:52:00,
2013-03-02 02:57:00,21.0,20.0,29.57,WNW,292,4.0,5.0,98,0.00,,,0.00,TxWx,2013-03-02 07:57:00,
2013-03-02 03:02:00,21.0,20.0,29.57,WNW,292,5.0,6.0,98,0.00,,,0.00,TxWx,2013-03-02 08:02:00,
2013-03-02 03:07:00,20.0,19.0,29.57,West,270,7.0,8.0,98,0.00,,,0.00,TxWx,2013-03-02 08:07:00,
2013-03-02 03:12:00,20.0,19.0,29.57,WSW,247,5.0,6.0,98,0.00,,,0.00,TxWx,2013-03-02 08:12:00,
2013-03-02 03:18:00,20.0,19.0,29.57,West,270,3.0,6.0,98,0.00,,,0.00,TxWx,2013-03-02 08:18:00,
2013-03-02 03:23:00,20.0,19.0,29.57,WNW,292,4.0,5.0,98,0.00,,,0.00,TxWx,2013-03-02 08:23:00,
2013-03-02 03:28:00,20.0,19.0,29.57,West,270,3.0,3.0,99,0.00,,,0.00,TxWx,2013-03-02 08:28:00,
2013-03-02 03:33:00,20.0,19.0,29.57,West,270,8.0,9.0,99,0.00,,,0.00,TxWx,2013-03-02 08:33:00,
2013-03-02 03:38:00,20.0,19.0,29.57,WNW,292,6.0,8.0,99,0.00,,,0.00,TxWx,2013-03-02 08:38:00,
2013-03-02 03:43:00,20.0,19.0,29.57,WNW,292,5.0,5.0,99,0.00,,,0.00,TxWx,2013-03-02 08:43:00,
2013-03-02 03:48:00,20.0,19.0,29.57,West,270,3.0,3.0,99,0.00,,,0.00,TxWx,2013-03-02 08:48:00,
2013-03-02 03:53:00,20.0,19.0,29.57,West,270,5.0,6.0,99,0.00,,,0.00,TxWx,2013-03-02 08:53:00,
2013-03-02 03:58:00,20.0,19.0,29.57,WNW,292,8.0,9.0,99,0.00,,,0.00,TxWx,2013-03-02 08:58:00,
2013-03-02 04:04:00,20.0,19.0,29.57,NW,315,4.0,7.0,99,0.00,,,0.00,TxWx,2013-03-02 09:04:00,
2013-03-02 04:09:00,20.0,19.0,29.57,SW,225,3.0,6.0,99,0.00,,,0.00,TxWx,2013-03-02 09:09:00,
2013-03-02 04:14:00,20.0,19.0,29.57,WNW,292,8.0,8.0,99,0.00,,,0.00,TxWx,2013-03-02 09:14:00,
2013-03-02 04:19:00,19.0,18.0,29.57,WNW,292,10.0,10.0,99,0.00,,,0.00,TxWx,2013-03-02 09:19:00,
2013-03-02 04:24:00,19.0,18.0,29.57,WSW,247,6.0,6.0,99,0.00,,,0.00,TxWx,2013-03-02 09:24:00,
2013-03-02 04:29:00,19.0,18.0,29.57,WSW,247,5.0,8.0,99,0.00,,,0.00,TxWx,2013-03-02 09:29:00,
2013-03-02 04:34:00,19.0,18.0,29.57,NW,315,8.0,11.0,99,0.00,,,0.00,TxWx,2013-03-02 09:34:00,
2013-03-02 04:39:00,19.0,18.0,29.58,West,270,10.0,10.0,99,0.00,,,0.00,TxWx,2013-03-02 09:39:00,
2013-03-02 04:44:00,19.0,19.0,29.57,WSW,247,8.0,9.0,100,0.00,,,0.00,TxWx,2013-03-02 09:44:00,
2013-03-02 04:49:00,19.0,19.0,29.57,NW,315,3.0,5.0,100,0.00,,,0.00,TxWx,2013-03-02 09:49:00,
2013-03-02 04:55:00,19.0,19.0,29.57,West,270,9.0,9.0,100,0.00,,,0.00,TxWx,2013-03-02 09:55:00,
2013-03-02 05:00:00,19.0,19.0,29.57,West,270,5.0,5.0,100,0.00,,,0.00,TxWx,2013-03-02 10:00:00,
2013-03-02 05:05:00,19.0,19.0,29.57,WNW,292,8.0,9.0,100,0.00,,,0.00,TxWx,2013-03-02 10:05:00,
2013-03-02 05:10:00,19.0,19.0,29.57,NW,315,9.0,10.0,100,0.00,,,0.00,TxWx,2013-03-02 10:10:00,
2013-03-02 05:16:00,19.0,19.0,29.57,WNW,292,5.0,6.0,100,0.00,,,0.00,TxWx,2013-03-02 10:16:00,
2013-03-02 05:21:00,19.0,19.0,29.57,WNW,292,3.0,5.0,100,0.00,,,0.00,TxWx,2013-03-02 10:21:00,
2013-03-02 05:26:00,19.0,19.0,29.57,WNW,292,6.0,7.0,100,0.00,,,0.00,TxWx,2013-03-02 10:26:00,
2013-03-02 05:31:00,19.0,19.0,29.57,NW,315,5.0,6.0,100,0.00,,,0.00,TxWx,2013-03-02 10:31:00,
2013-03-02 05:36:00,19.0,19.0,29.57,SW,225,11.0,11.0,100,0.00,,,0.00,TxWx,2013-03-02 10:36:00,
2013-03-02 05:41:00,19.0,19.0,29.57,SSW,202,3.0,6.0,100,0.00,,,0.00,TxWx,2013-03-02 10:41:00,
2013-03-02 05:46:00,19.0,19.0,29.57,WNW,292,5.0,5.0,100,0.00,,,0.00,TxWx,2013-03-02 10:46:00,
2013-03-02 05:52:00,19.0,19.0,29.57,WNW,292,5.0,5.0,100,0.00,,,0.00,TxWx,2013-03-02 10:52:00,
2013-03-02 05:59:00,19.0,19.0,29.57,WNW,292,5.0,5.0,100,0.00,,,0.00,TxWx,2013-03-02 10:59:00,
2013-03-02 06:04:00,19.0,19.0,29.57,West,270,10.0,10.0,100,0.00,,,0.00,TxWx,2013-03-02 11:04:00,
2013-03-02 06:09:00,19.0,19.0,29.57,SW,225,3.0,5.0,100,0.00,,,0.00,TxWx,2013-03-02 11:09:00,
2013-03-02 06:14:00,18.0,19.0,29.57,West,270,8.0,8.0,100,0.00,,,0.00,TxWx,2013-03-02 11:14:00,
2013-03-02 06:20:00,18.0,18.0,29.57,NNW,337,5.0,8.0,100,0.00,,,0.00,TxWx,2013-03-02 11:20:00,
2013-03-02 06:25:00,18.0,18.0,29.57,WNW,292,10.0,10.0,100,0.00,,,0.00,TxWx,2013-03-02 11:25:00,
2013-03-02 06:30:00,18.0,18.0,29.57,WNW,292,6.0,6.0,100,0.00,,,0.00,TxWx,2013-03-02 11:30:00,
2013-03-02 06:35:00,18.0,18.0,29.57,West,270,9.0,9.0,100,0.00,,,0.00,TxWx,2013-03-02 11:35:00,
2013-03-02 06:40:00,18.0,17.0,29.57,West,270,7.0,8.0,99,0.00,,,0.00,TxWx,2013-03-02 11:40:00,
2013-03-02 06:45:00,18.0,17.0,29.57,NW,315,8.0,12.0,99,0.00,,,0.00,TxWx,2013-03-02 11:45:00,
2013-03-02 06:50:00,18.0,17.0,29.57,West,270,6.0,6.0,99,0.00,,,0.00,TxWx,2013-03-02 11:50:00,
2013-03-02 06:55:00,18.0,17.0,29.57,WNW,292,6.0,7.0,99,0.00,,,0.00,TxWx,2013-03-02 11:55:00,
2013-03-02 07:00:00,18.0,17.0,29.57,NW,315,6.0,9.0,99,0.00,,,0.00,TxWx,2013-03-02 12:00:00,
2013-03-02 07:05:00,18.0,17.0,29.57,West,270,5.0,6.0,99,0.00,,,0.00,TxWx,2013-03-02 12:05:00,
2013-03-02 07:10:00,18.0,17.0,29.57,West,270,5.0,6.0,98,0.00,,,0.00,TxWx,2013-03-02 12:10:00,
2013-03-02 07:16:00,18.0,17.0,29.58,WNW,292,10.0,10.0,98,0.00,,,0.00,TxWx,2013-03-02 12:16:00,
2013-03-02 07:21:00,18.0,16.0,29.58,NW,315,8.0,8.0,98,0.00,,,0.00,TxWx,2013-03-02 12:21:00,
2013-03-02 07:26:00,18.0,16.0,29.58,NW,315,6.0,6.0,97,0.00,,,0.00,TxWx,2013-03-02 12:26:00,
2013-03-02 07:31:00,18.0,16.0,29.58,North,0,8.0,14.0,97,0.00,,,0.00,TxWx,2013-03-02 12:31:00,
2013-03-02 07:36:00,18.0,16.0,29.58,WSW,247,8.0,9.0,97,0.00,,,0.00,TxWx,2013-03-02 12:36:00,
2013-03-02 07:41:00,18.0,16.0,29.58,WSW,247,8.0,11.0,96,0.00,,,0.00,TxWx,2013-03-02 12:41:00,
2013-03-02 07:46:00,18.0,16.0,29.58,WNW,292,5.0,8.0,96,0.00,,,0.00,TxWx,2013-03-02 12:46:00,
2013-03-02 07:51:00,18.0,16.0,29.58,West,270,8.0,9.0,96,0.00,,,0.00,TxWx,2013-03-02 12:51:00,
2013-03-02 07:56:00,18.0,16.0,29.58,WNW,292,8.0,8.0,96,0.00,,,0.00,TxWx,2013-03-02 12:56:00,
2013-03-02 08:01:00,18.0,16.0,29.58,NW,315,8.0,8.0,96,0.00,,,0.00,TxWx,2013-03-02 13:01:00,
2013-03-02 08:07:00,18.0,16.0,29.59,WSW,247,8.0,12.0,96,0.00,,,0.00,TxWx,2013-03-02 13:07:00,
2013-03-02 08:12:00,18.0,16.0,29.59,WSW,247,6.0,13.0,96,0.00,,,0.00,TxWx,2013-03-02 13:12:00,
2013-03-02 08:17:00,18.0,16.0,29.59,West,270,10.0,10.0,95,0.00,,,0.00,TxWx,2013-03-02 13:17:00,
2013-03-02 08:22:00,18.0,16.0,29.58,West,270,3.0,5.0,95,0.00,,,0.00,TxWx,2013-03-02 13:22:00,
2013-03-02 08:27:00,18.0,16.0,29.58,WNW,292,5.0,8.0,95,0.00,,,0.00,TxWx,2013-03-02 13:27:00,
2013-03-02 08:32:00,18.0,16.0,29.58,WSW,247,8.0,10.0,95,0.00,,,0.00,TxWx,2013-03-02 13:32:00,
2013-03-02 08:37:00,18.0,16.0,29.58,NW,315,3.0,6.0,95,0.00,,,0.00,TxWx,2013-03-02 13:37:00,
2013-03-02 08:42:00,18.0,16.0,29.58,NW,315,4.0,5.0,95,0.00,,,0.00,TxWx,2013-03-02 13:42:00,
2013-03-02 08:47:00,18.0,16.0,29.58,WSW,247,13.0,14.0,95,0.00,,,0.00,TxWx,2013-03-02 13:47:00,
2013-03-02 08:52:00,18.0,16.0,29.58,West,270,8.0,10.0,95,0.00,,,0.00,TxWx,2013-03-02 13:52:00,
2013-03-02 08:57:00,18.0,16.0,29.58,NW,315,7.0,7.0,95,0.00,,,0.00,TxWx,2013-03-02 13:57:00,
2013-03-02 09:03:00,18.0,16.0,29.58,WNW,292,13.0,14.0,95,0.00,,,0.00,TxWx,2013-03-02 14:03:00,
2013-03-02 09:08:00,18.0,16.0,29.58,WNW,292,10.0,10.0,96,0.00,,,0.00,TxWx,2013-03-02 14:08:00,
2013-03-02 09:13:00,18.0,16.0,29.58,NNW,337,6.0,6.0,96,0.00,,,0.00,TxWx,2013-03-02 14:13:00,
2013-03-02 09:18:00,18.0,16.0,29.58,SSW,202,2.0,3.0,96,0.00,,,0.00,TxWx,2013-03-02 14:18:00,
2013-03-02 09:23:00,18.0,16.0,29.58,West,270,9.0,9.0,96,0.00,,,0.00,TxWx,2013-03-02 14:23:00,
2013-03-02 09:28:00,18.0,16.0,29.58,West,270,12.0,12.0,96,0.00,,,0.00,TxWx,2013-03-02 14:28:00,
2013-03-02 09:33:00,18.0,16.0,29.58,West,270,6.0,8.0,96,0.00,,,0.00,TxWx,2013-03-02 14:33:00,
2013-03-02 09:38:00,18.0,16.0,29.58,WNW,292,6.0,8.0,95,0.00,,,0.00,TxWx,2013-03-02 14:38:00,
2013-03-02 09:43:00,18.0,16.0,29.58,NW,315,5.0,5.0,96,0.00,,,0.00,TxWx,2013-03-02 14:43:00,
2013-03-02 09:48:00,18.0,16.0,29.58,NW,315,3.0,5.0,95,0.00,,,0.00,TxWx,2013-03-02 14:48:00,
2013-03-02 09:53:00,19.0,17.0,29.58,WNW,292,6.0,8.0,95,0.00,,,0.00,TxWx,2013-03-02 14:53:00,
2013-03-02 09:59:00,19.0,17.0,29.57,North,0,3.0,3.0,95,0.00,,,0.00,TxWx,2013-03-02 14:59:00,
2013-03-02 10:04:00,19.0,17.0,29.58,West,270,6.0,8.0,95,0.00,,,0.00,TxWx,2013-03-02 15:04:00,
2013-03-02 10:09:00,19.0,17.0,29.57,West,270,8.0,8.0,95,0.00,,,0.00,TxWx,2013-03-02 15:09:00,
2013-03-02 10:14:00,19.0,17.0,29.57,West,270,6.0,6.0,95,0.00,,,0.00,TxWx,2013-03-02 15:14:00,
2013-03-02 10:19:00,19.0,17.0,29.58,West,270,10.0,10.0,95,0.00,,,0.00,TxWx,2013-03-02 15:19:00,
2013-03-02 10:24:00,19.0,17.0,29.58,WNW,292,8.0,8.0,94,0.00,,,0.00,TxWx,2013-03-02 15:24:00,
2013-03-02 10:29:00,19.0,17.0,29.58,NNW,337,10.0,11.0,94,0.00,,,0.00,TxWx,2013-03-02 15:29:00,
2013-03-02 10:34:00,19.0,17.0,29.57,NW,315,5.0,6.0,95,0.00,,,0.00,TxWx,2013-03-02 15:34:00,
2013-03-02 10:39:00,19.0,17.0,29.57,NW,315,13.0,13.0,94,0.00,,,0.00,TxWx,2013-03-02 15:39:00,
2013-03-02 10:44:00,19.0,17.0,29.57,West,270,5.0,8.0,95,0.00,,,0.00,TxWx,2013-03-02 15:44:00,
2013-03-02 10:50:00,19.0,17.0,29.57,WNW,292,8.0,8.0,94,0.00,,,0.00,TxWx,2013-03-02 15:50:00,
2013-03-02 10:55:00,19.0,17.0,29.57,NW,315,5.0,6.0,94,0.00,,,0.00,TxWx,2013-03-02 15:55:00,
2013-03-02 11:00:00,19.0,17.0,29.57,NW,315,6.0,11.0,95,0.00,,,0.00,TxWx,2013-03-02 16:00:00,
2013-03-02 11:05:00,19.0,17.0,29.57,WNW,292,5.0,6.0,94,0.00,,,0.00,TxWx,2013-03-02 16:05:00,
2013-03-02 11:10:00,20.0,18.0,29.57,NW,315,5.0,6.0,94,0.00,,,0.00,TxWx,2013-03-02 16:10:00,
2013-03-02 11:15:00,20.0,17.0,29.57,West,270,5.0,8.0,94,0.00,,,0.00,TxWx,2013-03-02 16:15:00,
2013-03-02 11:20:00,20.0,17.0,29.57,NNW,337,6.0,11.0,93,0.00,,,0.00,TxWx,2013-03-02 16:20:00,
2013-03-02 11:25:00,20.0,17.0,29.56,NW,315,6.0,6.0,93,0.00,,,0.00,TxWx,2013-03-02 16:25:00,
2013-03-02 11:30:00,20.0,17.0,29.57,WNW,292,5.0,6.0,93,0.00,,,0.00,TxWx,2013-03-02 16:30:00,
2013-03-02 11:35:00,20.0,17.0,29.56,WSW,247,2.0,3.0,93,0.00,,,0.00,TxWx,2013-03-02 16:35:00,
2013-03-02 11:40:00,20.0,17.0,29.56,West,270,4.0,8.0,93,0.00,,,0.00,TxWx,2013-03-02 16:40:00,
2013-03-02 11:46:00,20.0,17.0,29.56,West,270,3.0,4.0,93,0.00,,,0.00,TxWx,2013-03-02 16:46:00,
2013-03-02 11:51:00,20.0,17.0,29.56,WNW,292,5.0,6.0,93,0.00,,,0.00,TxWx,2013-03-02 16:51:00,
2013-03-02 11:56:00,20.0,17.0,29.56,WNW,292,5.0,5.0,92,0.00,,,0.00,TxWx,2013-03-02 16:56:00,
2013-03-02 12:01:00,20.0,17.0,29.56,West,270,3.0,5.0,93,0.00,,,0.00,TxWx,2013-03-02 17:01:00,
2013-03-02 12:06:00,20.0,17.0,29.56,WNW,292,6.0,7.0,92,0.00,,,0.00,TxWx,2013-03-02 17:06:00,
2013-03-02 12:11:00,20.0,17.0,29.56,West,270,5.0,7.0,92,0.00,,,0.00,TxWx,2013-03-02 17:11:00,
2013-03-02 12:16:00,20.0,17.0,29.56,WNW,292,2.0,4.0,92,0.00,,,0.00,TxWx,2013-03-02 17:16:00,
2013-03-02 12:21:00,20.0,17.0,29.56,West,270,3.0,4.0,93,0.00,,,0.00,TxWx,2013-03-02 17:21:00,
2013-03-02 12:26:00,20.0,17.0,29.56,West,270,3.0,3.0,93,0.00,,,0.00,TxWx,2013-03-02 17:26:00,
2013-03-02 12:31:00,20.0,17.0,29.56,SSW,202,2.0,3.0,92,0.00,,,0.00,TxWx,2013-03-02 17:31:00,
2013-03-02 12:37:00,20.0,17.0,29.55,NW,315,5.0,6.0,92,0.00,,,0.00,TxWx,2013-03-02 17:37:00,
2013-03-02 12:42:00,20.0,17.0,29.55,West,270,6.0,8.0,92,0.00,,,0.00,TxWx,2013-03-02 17:42:00,
2013-03-02 12:47:00,20.0,17.0,29.55,NW,315,3.0,7.0,92,0.00,,,0.00,TxWx,2013-03-02 17:47:00,
2013-03-02 12:52:00,20.0,17.0,29.55,WNW,292,5.0,6.0,92,0.00,,,0.00,TxWx,2013-03-02 17:52:00,
2013-03-02 12:57:00,20.0,17.0,29.55,NW,315,10.0,10.0,92,0.00,,,0.00,TxWx,2013-03-02 17:57:00,
2013-03-02 13:02:00,19.0,16.0,29.55,WNW,292,12.0,13.0,92,0.00,,,0.00,TxWx,2013-03-02 18:02:00,
2013-03-02 13:07:00,19.0,16.0,29.55,West,270,5.0,6.0,93,0.00,,,0.00,TxWx,2013-03-02 18:07:00,
2013-03-02 13:12:00,19.0,16.0,29.55,WNW,292,6.0,8.0,93,0.00,,,0.00,TxWx,2013-03-02 18:12:00,
2013-03-02 13:17:00,19.0,16.0,29.55,North,0,6.0,11.0,93,0.00,,,0.00,TxWx,2013-03-02 18:17:00,
2013-03-02 13:22:00,19.0,16.0,29.55,NNW,337,7.0,7.0,93,0.00,,,0.00,TxWx,2013-03-02 18:22:00,
2013-03-02 13:27:00,19.0,16.0,29.55,NW,315,5.0,6.0,93,0.00,,,0.00,TxWx,2013-03-02 18:27:00,
2013-03-02 13:33:00,19.0,16.0,29.55,WNW,292,5.0,5.0,93,0.00,,,0.00,TxWx,2013-03-02 18:33:00,
2013-03-02 13:38:00,19.0,16.0,29.55,West,270,7.0,11.0,93,0.00,,,0.00,TxWx,2013-03-02 18:38:00,
2013-03-02 13:43:00,19.0,16.0,29.55,West,270,6.0,10.0,93,0.00,,,0.00,TxWx,2013-03-02 18:43:00,
2013-03-02 13:48:00,19.0,16.0,29.55,WSW,247,7.0,9.0,93,0.00,,,0.00,TxWx,2013-03-02 18:48:00,
2013-03-02 13:53:00,19.0,16.0,29.55,WNW,292,6.0,8.0,93,0.00,,,0.00,TxWx,2013-03-02 18:53:00,
2013-03-02 13:58:00,20.0,17.0,29.55,WSW,247,7.0,11.0,93,0.00,,,0.00,TxWx,2013-03-02 18:58:00,
2013-03-02 13:59:00,13.0,12.0,29.55,WSW,247,6.0,7.0,99,0.00,,,0.00,TxWx,2013-03-02 18:59:00,
2013-03-02 14:00:00,13.0,12.0,29.55,NW,315,5.0,5.0,99,0.00,,,0.00,TxWx,2013-03-02 19:00:00,
2013-03-02 14:01:00,13.0,12.0,29.55,NW,315,11.0,11.0,99,0.00,,,0.00,TxWx,2013-03-02 19:01:00,
2013-03-02 14:02:00,13.0,12.0,29.55,NW,315,5.0,6.0,99,0.00,,,0.00,TxWx,2013-03-02 19:02:00,
2013-03-02 14:03:00,20.0,17.0,29.55,NW,315,5.0,5.0,92,0.00,,,0.00,TxWx,2013-03-02 19:03:00,
2013-03-02 14:08:00,19.0,16.0,29.55,West,270,5.0,8.0,92,0.00,,,0.00,TxWx,2013-03-02 19:08:00,
2013-03-02 14:13:00,19.0,16.0,29.55,WNW,292,14.0,14.0,92,0.00,,,0.00,TxWx,2013-03-02 19:13:00,
2013-03-02 14:18:00,19.0,16.0,29.55,West,270,11.0,13.0,92,0.00,,,0.00,TxWx,2013-03-02 19:18:00,
2013-03-02 14:24:00,19.0,16.0,29.55,North,0,5.0,6.0,92,0.00,,,0.00,TxWx,2013-03-02 19:24:00,
2013-03-02 14:29:00,19.0,16.0,29.55,WSW,247,4.0,8.0,93,0.00,,,0.00,TxWx,2013-03-02 19:29:00,
2013-03-02 14:34:00,19.0,16.0,29.55,WNW,292,5.0,6.0,93,0.00,,,0.00,TxWx,2013-03-02 19:34:00,
2013-03-02 14:39:00,19.0,16.0,29.54,SW,225,7.0,13.0,93,0.00,,,0.00,TxWx,2013-03-02 19:39:00,
2013-03-02 14:44:00,19.0,16.0,29.55,WNW,292,13.0,13.0,93,0.00,,,0.00,TxWx,2013-03-02 19:44:00,
2013-03-02 14:49:00,19.0,16.0,29.55,WNW,292,5.0,6.0,93,0.00,,,0.00,TxWx,2013-03-02 19:49:00,
2013-03-02 14:54:00,19.0,16.0,29.55,WNW,292,10.0,11.0,93,0.00,,,0.00,TxWx,2013-03-02 19:54:00,
2013-03-02 14:59:00,19.0,16.0,29.55,ENE,67,5.0,6.0,93,0.00,,,0.00,TxWx,2013-03-02 19:59:00,
2013-03-02 15:04:00,19.0,16.0,29.55,SW,225,6.0,7.0,93,0.00,,,0.00,TxWx,2013-03-02 20:04:00,
2013-03-02 15:09:00,19.0,16.0,29.55,WNW,292,11.0,11.0,93,0.00,,,0.00,TxWx,2013-03-02 20:09:00,
2013-03-02 15:15:00,19.0,16.0,29.54,WSW,247,4.0,5.0,93,0.00,,,0.00,TxWx,2013-03-02 20:15:00,
2013-03-02 15:20:00,19.0,16.0,29.55,NW,315,4.0,6.0,93,0.00,,,0.00,TxWx,2013-03-02 20:20:00,
2013-03-02 15:25:00,19.0,16.0,29.54,WNW,292,11.0,11.0,93,0.00,,,0.00,TxWx,2013-03-02 20:25:00,
2013-03-02 15:30:00,19.0,16.0,29.55,NNW,337,5.0,6.0,93,0.00,,,0.00,TxWx,2013-03-02 20:30:00,
2013-03-02 15:35:00,19.0,16.0,29.55,WNW,292,14.0,14.0,93,0.00,,,0.00,TxWx,2013-03-02 20:35:00,
2013-03-02 15:40:00,18.0,15.0,29.55,West,270,7.0,10.0,93,0.00,,,0.00,TxWx,2013-03-02 20:40:00,
2013-03-02 15:45:00,18.0,15.0,29.55,NW,315,6.0,6.0,93,0.00,,,0.00,TxWx,2013-03-02 20:45:00,
2013-03-02 15:50:00,18.0,15.0,29.55,WNW,292,6.0,13.0,93,0.00,,,0.00,TxWx,2013-03-02 20:50:00,
2013-03-02 15:55:00,18.0,15.0,29.55,NNW,337,5.0,7.0,93,0.00,,,0.00,TxWx,2013-03-02 20:55:00,
2013-03-02 16:00:00,18.0,15.0,29.55,NNW,337,5.0,12.0,94,0.00,,,0.00,TxWx,2013-03-02 21:00:00,
2013-03-02 16:05:00,18.0,15.0,29.55,West,270,10.0,13.0,94,0.00,,,0.00,TxWx,2013-03-02 21:05:00,
2013-03-02 16:11:00,18.0,15.0,29.55,West,270,10.0,11.0,94,0.00,,,0.00,TxWx,2013-03-02 21:11:00,
2013-03-02 16:16:00,18.0,16.0,29.55,West,270,9.0,12.0,94,0.00,,,0.00,TxWx,2013-03-02 21:16:00,
2013-03-02 16:21:00,18.0,16.0,29.55,WNW,292,5.0,6.0,95,0.00,,,0.00,TxWx,2013-03-02 21:21:00,
2013-03-02 16:26:00,18.0,16.0,29.55,WNW,292,11.0,11.0,95,0.00,,,0.00,TxWx,2013-03-02 21:26:00,
2013-03-02 16:31:00,17.0,15.0,29.55,WNW,292,15.0,15.0,95,0.00,,,0.00,TxWx,2013-03-02 21:31:00,
2013-03-02 16:36:00,17.0,15.0,29.56,West,270,4.0,5.0,95,0.00,,,0.00,TxWx,2013-03-02 21:36:00,
2013-03-02 16:41:00,17.0,15.0,29.56,WSW,247,5.0,5.0,95,0.00,,,0.00,TxWx,2013-03-02 21:41:00,
2013-03-02 16:46:00,17.0,15.0,29.56,NW,315,10.0,11.0,95,0.00,,,0.00,TxWx,2013-03-02 21:46:00,
2013-03-02 16:51:00,17.0,15.0,29.56,West,270,6.0,6.0,95,0.00,,,0.00,TxWx,2013-03-02 21:51:00,
2013-03-02 16:56:00,18.0,16.0,29.56,WNW,292,5.0,5.0,95,0.00,,,0.00,TxWx,2013-03-02 21:56:00,
2013-03-02 17:02:00,18.0,16.0,29.56,West,270,6.0,11.0,95,0.00,,,0.00,TxWx,2013-03-02 22:02:00,
2013-03-02 17:07:00,17.0,15.0,29.56,WNW,292,10.0,10.0,95,0.00,,,0.00,TxWx,2013-03-02 22:07:00,
2013-03-02 17:12:00,17.0,15.0,29.56,West,270,7.0,7.0,95,0.00,,,0.00,TxWx,2013-03-02 22:12:00,
2013-03-02 17:17:00,17.0,15.0,29.56,WNW,292,6.0,6.0,96,0.00,,,0.00,TxWx,2013-03-02 22:17:00,
2013-03-02 17:22:00,17.0,15.0,29.57,West,270,10.0,12.0,96,0.00,,,0.00,TxWx,2013-03-02 22:22:00,
2013-03-02 17:27:00,17.0,15.0,29.57,NNW,337,7.0,7.0,96,0.00,,,0.00,TxWx,2013-03-02 22:27:00,
2013-03-02 17:32:00,17.0,15.0,29.57,NW,315,5.0,6.0,97,0.00,,,0.00,TxWx,2013-03-02 22:32:00,
2013-03-02 17:37:00,17.0,15.0,29.57,NW,315,9.0,9.0,97,0.00,,,0.00,TxWx,2013-03-02 22:37:00,
2013-03-02 17:42:00,17.0,15.0,29.57,West,270,4.0,4.0,97,0.00,,,0.00,TxWx,2013-03-02 22:42:00,
2013-03-02 17:47:00,17.0,15.0,29.57,NNW,337,11.0,11.0,97,0.00,,,0.00,TxWx,2013-03-02 22:47:00,
2013-03-02 17:53:00,17.0,15.0,29.57,NW,315,6.0,10.0,97,0.00,,,0.00,TxWx,2013-03-02 22:53:00,
2013-03-02 17:58:00,17.0,15.0,29.57,WNW,292,10.0,10.0,97,0.00,,,0.00,TxWx,2013-03-02 22:58:00,
2013-03-02 18:03:00,17.0,15.0,29.57,NNW,337,6.0,6.0,97,0.00,,,0.00,TxWx,2013-03-02 23:03:00,
2013-03-02 18:08:00,17.0,15.0,29.58,WNW,292,7.0,8.0,97,0.00,,,0.00,TxWx,2013-03-02 23:08:00,
2013-03-02 18:13:00,17.0,15.0,29.58,NW,315,6.0,6.0,97,0.00,,,0.00,TxWx,2013-03-02 23:13:00,
2013-03-02 18:18:00,16.0,14.0,29.58,West,270,5.0,8.0,97,0.00,,,0.00,TxWx,2013-03-02 23:18:00,
2013-03-02 18:23:00,16.0,14.0,29.58,WNW,292,14.0,17.0,97,0.00,,,0.00,TxWx,2013-03-02 23:23:00,
2013-03-02 18:28:00,16.0,14.0,29.58,NW,315,6.0,7.0,97,0.00,,,0.00,TxWx,2013-03-02 23:28:00,
2013-03-02 18:33:00,16.0,14.0,29.58,WNW,292,5.0,8.0,97,0.00,,,0.00,TxWx,2013-03-02 23:33:00,
2013-03-02 18:38:00,16.0,14.0,29.58,NW,315,5.0,5.0,97,0.00,,,0.00,TxWx,2013-03-02 23:38:00,
2013-03-02 18:43:00,16.0,14.0,29.58,West,270,6.0,7.0,97,0.00,,,0.00,TxWx,2013-03-02 23:43:00,
2013-03-02 18:49:00,16.0,14.0,29.59,NW,315,2.0,5.0,98,0.00,,,0.00,TxWx,2013-03-02 23:49:00,
2013-03-02 18:54:00,16.0,14.0,29.59,South,180,3.0,4.0,98,0.00,,,0.00,TxWx,2013-03-02 23:54:00,
2013-03-02 18:59:00,16.0,14.0,29.59,NNW,337,6.0,6.0,98,0.00,,,0.00,TxWx,2013-03-02 23:59:00,
2013-03-02 19:04:00,16.0,14.0,29.59,WNW,292,2.0,3.0,98,0.00,,,0.00,TxWx,2013-03-03 00:04:00,
2013-03-02 19:09:00,16.0,14.0,29.59,NW,315,7.0,7.0,98,0.00,,,0.00,TxWx,2013-03-03 00:09:00,
2013-03-02 19:14:00,16.0,14.0,29.59,West,270,4.0,4.0,98,0.00,,,0.00,TxWx,2013-03-03 00:14:00,
2013-03-02 19:19:00,16.0,14.0,29.59,WNW,292,5.0,6.0,98,0.00,,,0.00,TxWx,2013-03-03 00:19:00,
2013-03-02 19:24:00,16.0,15.0,29.59,WNW,292,5.0,6.0,98,0.00,,,0.00,TxWx,2013-03-03 00:24:00,
2013-03-02 19:29:00,16.0,15.0,29.59,NNW,337,7.0,8.0,98,0.00,,,0.00,TxWx,2013-03-03 00:29:00,
2013-03-02 19:34:00,16.0,15.0,29.59,WNW,292,5.0,6.0,98,0.00,,,0.00,TxWx,2013-03-03 00:34:00,
2013-03-02 19:40:00,16.0,15.0,29.59,WNW,292,6.0,6.0,98,0.00,,,0.00,TxWx,2013-03-03 00:40:00,
2013-03-02 19:45:00,16.0,15.0,29.59,West,270,10.0,11.0,98,0.00,,,0.00,TxWx,2013-03-03 00:45:00,
2013-03-02 19:50:00,16.0,15.0,29.58,NW,315,4.0,7.0,98,0.00,,,0.00,TxWx,2013-03-03 00:50:00,
2013-03-02 19:55:00,16.0,15.0,29.58,WNW,292,4.0,5.0,98,0.00,,,0.00,TxWx,2013-03-03 00:55:00,
2013-03-02 20:00:00,16.0,14.0,29.58,West,270,11.0,11.0,98,0.00,,,0.00,TxWx,2013-03-03 01:00:00,
2013-03-02 20:05:00,15.0,13.0,29.58,WSW,247,3.0,5.0,98,0.00,,,0.00,TxWx,2013-03-03 01:05:00,
2013-03-02 20:10:00,15.0,13.0,29.59,WNW,292,6.0,8.0,98,0.00,,,0.00,TxWx,2013-03-03 01:10:00,
2013-03-02 20:15:00,15.0,13.0,29.59,West,270,6.0,8.0,98,0.00,,,0.00,TxWx,2013-03-03 01:15:00,
2013-03-02 20:20:00,15.0,13.0,29.59,West,270,6.0,6.0,98,0.00,,,0.00,TxWx,2013-03-03 01:20:00,
2013-03-02 20:25:00,15.0,13.0,29.59,West,270,5.0,5.0,98,0.00,,,0.00,TxWx,2013-03-03 01:25:00,
2013-03-02 20:30:00,15.0,13.0,29.58,West,270,6.0,8.0,98,0.00,,,0.00,TxWx,2013-03-03 01:30:00,
2013-03-02 20:36:00,15.0,13.0,29.58,WNW,292,6.0,6.0,98,0.00,,,0.00,TxWx,2013-03-03 01:36:00,
2013-03-02 20:41:00,15.0,13.0,29.58,WNW,292,5.0,6.0,98,0.00,,,0.00,TxWx,2013-03-03 01:41:00,
2013-03-02 20:46:00,15.0,13.0,29.59,West,270,5.0,6.0,98,0.00,,,0.00,TxWx,2013-03-03 01:46:00,
2013-03-02 20:51:00,15.0,13.0,29.59,NNW,337,6.0,8.0,98,0.00,,,0.00,TxWx,2013-03-03 01:51:00,
2013-03-02 20:56:00,15.0,13.0,29.59,WSW,247,9.0,10.0,98,0.00,,,0.00,TxWx,2013-03-03 01:56:00,
2013-03-02 21:01:00,15.0,13.0,29.59,SW,225,5.0,6.0,98,0.00,,,0.00,TxWx,2013-03-03 02:01:00,
2013-03-02 21:06:00,15.0,13.0,29.59,SW,225,3.0,5.0,98,0.00,,,0.00,TxWx,2013-03-03 02:06:00,
2013-03-02 21:11:00,15.0,13.0,29.58,WNW,292,6.0,6.0,98,0.00,,,0.00,TxWx,2013-03-03 02:11:00,
2013-03-02 21:16:00,15.0,13.0,29.59,WNW,292,3.0,4.0,98,0.00,,,0.00,TxWx,2013-03-03 02:16:00,
2013-03-02 21:21:00,15.0,14.0,29.58,NNE,22,3.0,5.0,98,0.00,,,0.00,TxWx,2013-03-03 02:21:00,
2013-03-02 21:27:00,15.0,14.0,29.58,WNW,292,5.0,5.0,98,0.00,,,0.00,TxWx,2013-03-03 02:27:00,
2013-03-02 21:32:00,15.0,14.0,29.58,WNW,292,6.0,7.0,98,0.00,,,0.00,TxWx,2013-03-03 02:32:00,
2013-03-02 21:37:00,15.0,14.0,29.58,WSW,247,6.0,6.0,98,0.00,,,0.00,TxWx,2013-03-03 02:37:00,
2013-03-02 21:42:00,15.0,14.0,29.58,West,270,5.0,5.0,98,0.00,,,0.00,TxWx,2013-03-03 02:42:00,
2013-03-02 21:47:00,15.0,14.0,29.58,WNW,292,2.0,3.0,98,0.00,,,0.00,TxWx,2013-03-03 02:47:00,
2013-03-02 21:52:00,15.0,14.0,29.58,WNW,292,5.0,5.0,98,0.00,,,0.00,TxWx,2013-03-03 02:52:00,
2013-03-02 21:57:00,14.0,13.0,29.58,WNW,292,5.0,6.0,98,0.00,,,0.00,TxWx,2013-03-03 02:57:00,
2013-03-02 22:02:00,14.0,13.0,29.58,WNW,292,4.0,5.0,98,0.00,,,0.00,TxWx,2013-03-03 03:02:00,
2013-03-02 22:03:00,14.0,14.0,29.55,WNW,292,3.0,5.0,100,0.00,,,0.00,TxWx,2013-03-03 03:03:00,
2013-03-02 22:04:00,14.0,14.0,29.55,West,270,5.0,5.0,100,0.00,,,0.00,TxWx,2013-03-03 03:04:00,
2013-03-02 22:05:00,14.0,14.0,29.55,NW,315,3.0,5.0,100,0.00,,,0.00,TxWx,2013-03-03 03:05:00,
2013-03-02 22:07:00,14.0,13.0,29.57,WNW,292,6.0,6.0,98,0.00,,,0.00,TxWx,2013-03-03 03:07:00,
2013-03-02 22:12:00,14.0,13.0,29.57,WNW,292,5.0,6.0,98,0.00,,,0.00,TxWx,2013-03-03 03:12:00,
2013-03-02 22:18:00,14.0,13.0,29.57,WNW,292,4.0,4.0,98,0.00,,,0.00,TxWx,2013-03-03 03:18:00,
2013-03-02 22:23:00,14.0,13.0,29.57,West,270,5.0,5.0,98,0.00,,,0.00,TxWx,2013-03-03 03:23:00,
2013-03-02 22:28:00,14.0,13.0,29.57,WNW,292,6.0,6.0,98,0.00,,,0.00,TxWx,2013-03-03 03:28:00,
2013-03-02 22:33:00,14.0,13.0,29.57,WSW,247,8.0,8.0,98,0.00,,,0.00,TxWx,2013-03-03 03:33:00,
2013-03-02 22:38:00,14.0,13.0,29.57,South,180,7.0,7.0,98,0.00,,,0.00,TxWx,2013-03-03 03:38:00,
2013-03-02 22:41:00,15.0,14.0,29.54,WNW,292,6.0,8.0,99,0.00,,,0.00,TxWx,2013-03-03 03:41:00,
2013-03-02 22:43:00,14.0,13.0,29.57,WNW,292,7.0,7.0,98,0.00,,,0.00,TxWx,2013-03-03 03:43:00,
2013-03-02 22:45:00,15.0,14.0,29.54,NW,315,6.0,6.0,99,0.00,,,0.00,TxWx,2013-03-03 03:45:00,
2013-03-02 22:46:00,15.0,14.0,29.54,NW,315,3.0,5.0,99,0.00,,,0.00,TxWx,2013-03-03 03:46:00,
2013-03-02 22:47:00,15.0,14.0,29.54,WNW,292,5.0,5.0,99,0.00,,,0.00,TxWx,2013-03-03 03:47:00,
2013-03-02 22:48:00,14.0,13.0,29.57,West,270,5.0,6.0,98,0.00,,,0.00,TxWx,2013-03-03 03:48:00,
2013-03-02 22:53:00,14.0,13.0,29.57,West,270,5.0,6.0,98,0.00,,,0.00,TxWx,2013-03-03 03:53:00,
2013-03-02 22:58:00,14.0,13.0,29.57,WNW,292,4.0,7.0,98,0.00,,,0.00,TxWx,2013-03-03 03:58:00,
2013-03-02 23:03:00,14.0,13.0,29.56,West,270,8.0,8.0,98,0.00,,,0.00,TxWx,2013-03-03 04:03:00,
2013-03-02 23:08:00,14.0,13.0,29.56,WNW,292,5.0,5.0,98,0.00,,,0.00,TxWx,2013-03-03 04:08:00,
2013-03-02 23:14:00,14.0,13.0,29.56,WSW,247,5.0,6.0,98,0.00,,,0.00,TxWx,2013-03-03 04:14:00,
2013-03-02 23:19:00,14.0,13.0,29.56,West,270,6.0,6.0,98,0.00,,,0.00,TxWx,2013-03-03 04:19:00,
2013-03-02 23:24:00,14.0,13.0,29.56,WSW,247,5.0,5.0,98,0.00,,,0.00,TxWx,2013-03-03 04:24:00,
2013-03-02 23:29:00,14.0,13.0,29.56,NW,315,7.0,7.0,98,0.00,,,0.00,TxWx,2013-03-03 04:29:00,
2013-03-02 23:34:00,14.0,13.0,29.56,West,270,3.0,4.0,98,0.00,,,0.00,TxWx,2013-03-03 04:34:00,
2013-03-02 23:39:00,14.0,13.0,29.56,West,270,5.0,5.0,98,0.00,,,0.00,TxWx,2013-03-03 04:39:00,
2013-03-02 23:44:00,14.0,13.0,29.55,West,270,6.0,7.0,98,0.00,,,0.00,TxWx,2013-03-03 04:44:00,
2013-03-02 23:49:00,14.0,13.0,29.55,WNW,292,6.0,6.0,98,0.00,,,0.00,TxWx,2013-03-03 04:49:00,
2013-03-02 23:54:00,14.0,13.0,29.55,SW,225,3.0,5.0,98,0.00,,,0.00,TxWx,2013-03-03 04:54:00,
2013-03-02 23:59:00,13.0,12.0,29.55,West,270,7.0,8.0,98,0.00,,,0.00,TxWx,2013-03-03 04:59:00,